Murderkill River Harrington DE USA current weather conditions

sailwx.info

Wind from 159 at 4 knots gusting 9

Air temperature 24.8° C
Dewpoint 21.6° C

Last reported at 2020-May-28 16:10 UTC.
Time now 2020-May-29 06:09 UTC

Location: N 38°55' W 075°35'.
View on Google Maps.

See reports from other nearby stations

  
Tides and Currents Weather Stations Pressure Air Temp Water Temp Dewpoint Dewpoint Depression Visibility Wind Speed Wind Dir Waves Ship Positions
date/time (UTC)wind fromknots sea level pressurealtimeterstation pressurevisibilityair tempwater tempwave heightnotes
2020-May-28 16:10 159 4 gusting 9 24.8
2020-May-28 16:05 206 2 gusting 9 25.0
2020-May-28 16:00 184 3 gusting 7 25.2
2020-May-28 15:55 139 3 gusting 8 24.8
2020-May-28 15:50 205 3 gusting 7 24.9
2020-May-28 15:45 206 2 gusting 7 25.2
2020-May-28 15:40 190 3 gusting 7 25.1
2020-May-28 15:35 132 3 gusting 9 24.9
2020-May-28 15:30 124 3 gusting 9 24.6
2020-May-28 15:25 177 2 gusting 7 24.3
2020-May-28 15:20 269 1 gusting 5 24.1
2020-May-28 15:15 173 2 gusting 6 23.9
2020-May-28 15:10 209 2 gusting 8 23.9
2020-May-28 15:05 150 2 gusting 8 23.8
2020-May-28 15:00 203 2 gusting 4 23.8
2020-May-28 14:55 214 3 gusting 6 23.8
2020-May-28 14:50 218 2 gusting 6 23.8
2020-May-28 14:45 170 3 gusting 7 23.8
2020-May-28 14:40 168 3 gusting 7 23.9
2020-May-28 14:35 175 4 gusting 10 23.9
2020-May-28 14:30 198 3 gusting 8 23.9
2020-May-28 14:25 172 4 gusting 9 23.9
2020-May-28 14:20 187 2 gusting 6 23.8
2020-May-28 14:15 173 3 gusting 11 23.6
2020-May-28 14:10 172 2 gusting 8 23.5
2020-May-28 14:05 139 2 gusting 6 23.4
2020-May-28 14:00 171 2 gusting 10 23.4
2020-May-28 13:55 168 3 gusting 9 23.4
2020-May-28 13:50 175 2 gusting 8 23.3
2020-May-28 13:45 159 2 gusting 5 23.3
2020-May-28 13:40 134 2 gusting 7 23.2
2020-May-28 13:35 199 1 gusting 4 23.1
2020-May-28 13:30 122 2 gusting 4 23.0
2020-May-28 13:25 173 2 gusting 5 22.9
2020-May-28 13:20 146 2 gusting 5 22.8
2020-May-28 13:15 202 1 gusting 4 22.8
2020-May-28 13:10 155 3 gusting 6 22.8
2020-May-28 13:05 121 2 gusting 8 22.6
2020-May-28 13:00 138 2 gusting 8 22.5
2020-May-28 12:55 088 2 gusting 5 22.5
2020-May-28 12:50 134 2 gusting 6 22.4
2020-May-28 12:45 105 2 gusting 4 22.4
2020-May-28 12:40 133 2 gusting 6 22.3
2020-May-28 12:35 135 2 gusting 5 22.3
2020-May-28 12:30 113 2 gusting 5 22.2
2020-May-28 12:25 092 2 gusting 9 22.2
2020-May-28 12:20 131 3 gusting 9 22.2
2020-May-28 12:15 104 2 gusting 6 22.1
2020-May-28 12:10 102 2 gusting 7 22.0
2020-May-28 12:05 077 2 gusting 4 21.9
2020-May-28 12:00 127 3 gusting 7 21.8
2020-May-28 11:55 129 1 gusting 6 21.7
2020-May-28 11:50 144 2 gusting 8 21.5
2020-May-28 11:45 138 2 gusting 5 21.5
2020-May-28 11:40 102 1 gusting 4 21.5
2020-May-28 11:35 078 2 gusting 7 21.4
2020-May-28 11:30 101 2 gusting 5 21.3
2020-May-28 11:25 094 2 gusting 9 21.3
2020-May-28 11:20 098 2 gusting 6 21.1
2020-May-28 11:15 092 2 gusting 6 21.1
2020-May-28 11:10 086 4 gusting 8 21.0
2020-May-28 11:05 096 4 gusting 6 20.9
2020-May-28 11:00 081 2 gusting 5 20.9
2020-May-28 10:55 096 3 gusting 7 20.9
2020-May-28 10:50 092 2 gusting 5 21.0
2020-May-28 10:45 097 3 gusting 7 21.0
2020-May-28 10:40 096 3 gusting 5 21.0
2020-May-28 10:35 079 3 gusting 6 21.0
2020-May-28 10:30 093 3 gusting 6 21.0
2020-May-28 10:25 101 3 gusting 7 20.9
2020-May-28 10:20 090 2 gusting 4 20.9
2020-May-28 10:15 099 3 gusting 6 20.9
2020-May-28 10:10 098 2 gusting 6 20.9
2020-May-28 10:05 089 2 gusting 6 20.9
2020-May-28 10:00 085 1 gusting 5 20.9
2020-May-28 09:55 091 3 gusting 6 20.9
2020-May-28 09:50 087 2 gusting 6 20.9
2020-May-28 09:45 090 2 gusting 5 20.9
2020-May-28 09:40 092 2 gusting 5 20.9
2020-May-28 09:35 086 2 gusting 5 20.9
2020-May-28 09:30 088 2 gusting 5 20.9
2020-May-28 09:25 096 2 gusting 6 20.9
2020-May-28 09:20 086 2 gusting 4 20.9
2020-May-28 09:15 086 2 gusting 5 20.9
2020-May-28 09:10 079 2 gusting 4 20.9
2020-May-28 09:05 083 1 gusting 5 20.9
2020-May-28 09:00 083 2 gusting 5 20.9
2020-May-28 08:55 081 1 gusting 3 20.9
2020-May-28 08:50 090 1 gusting 4 20.9
2020-May-28 08:45 083 1 gusting 3 20.9
2020-May-28 08:40 077 1 gusting 5 20.8
2020-May-28 08:35 114 0 gusting 3 20.8
2020-May-28 08:30 088 1 gusting 4 20.8
2020-May-28 08:25 088 1 gusting 2 20.9
2020-May-28 08:20 081 2 gusting 3 20.9
2020-May-28 08:15 084 1 gusting 2 20.9
2020-May-28 08:10 086 0 gusting 2 21.0
2020-May-28 08:05 065 1 gusting 2 21.0
2020-May-28 08:00 086 1 gusting 3 21.0
2020-May-28 07:55 071 2 gusting 5 21.0
2020-May-28 07:50 096 1 gusting 4 21.0
2020-May-28 07:45 086 2 gusting 4 21.0
2020-May-28 07:40 087 2 gusting 4 21.1
2020-May-28 07:35 103 1 gusting 4 21.1
2020-May-28 07:30 083 1 gusting 3 21.1
2020-May-28 07:25 141 1 gusting 4 21.1
2020-May-28 07:20 116 1 gusting 3 21.1
2020-May-28 07:15 167 0 gusting 2 21.0
2020-May-28 07:10 167 1 gusting 4 21.0
2020-May-28 07:05 178 1 gusting 5 21.0
2020-May-28 07:00 125 1 gusting 4 20.9
2020-May-28 06:55 160 0 gusting 2 20.9
2020-May-28 06:50 117 1 gusting 3 20.9
2020-May-28 06:45 094 1 gusting 2 20.9
2020-May-28 06:40 115 1 gusting 4 20.9
2020-May-28 06:35 107 1 gusting 4 20.8
2020-May-28 06:30 096 1 gusting 6 20.8
2020-May-28 06:25 093 1 gusting 6 20.8
2020-May-28 06:20 083 1 gusting 4 20.8
2020-May-28 06:15 089 1 gusting 4 20.8
2020-May-28 06:10 113 1 gusting 2 20.7
2020-May-28 06:05 167 1 gusting 3 20.7
2020-May-28 06:00 135 1 gusting 4 20.7
2020-May-28 05:55 193 1 gusting 4 20.7
2020-May-28 05:50 171 1 gusting 3 20.7
2020-May-28 05:45 151 1 gusting 3 20.6
2020-May-28 05:40 142 1 gusting 5 20.6
2020-May-28 05:35 162 0 gusting 2 20.6
2020-May-28 05:30 156 1 gusting 3 20.6
2020-May-28 05:25 162 1 gusting 3 20.6
2020-May-28 05:20 198 2 gusting 5 20.6
2020-May-28 05:15 156 1 gusting 4 20.6
2020-May-28 05:10 144 1 gusting 3 20.5
2020-May-28 05:05 164 2 gusting 5 20.5
2020-May-28 05:00 141 1 gusting 3 20.5
2020-May-28 04:55 209 1 gusting 3 20.4
2020-May-28 04:50 096 1 gusting 3 20.4
2020-May-28 04:45 137 1 gusting 3 20.3
2020-May-28 04:40 189 0 gusting 1 20.3
2020-May-28 04:35 209 0 gusting 3 20.2
2020-May-28 04:30 357 0 gusting 2 20.1
2020-May-28 04:25 173 0 gusting 0 20.0
2020-May-28 04:20 093 0 gusting 1 20.0
2020-May-28 04:15 063 0 gusting 1 20.0
2020-May-28 04:10 033 0 gusting 0 20.1
2020-May-28 04:05 20.1
2020-May-28 04:00 290 0 gusting 1 20.2
2020-May-28 03:55 060 0 gusting 1 20.1
2020-May-28 03:50 116 0 gusting 2 20.2
2020-May-28 03:45 179 1 gusting 2 20.3
2020-May-28 03:40 191 1 gusting 5 20.3
2020-May-28 03:35 179 1 gusting 3 20.2
2020-May-28 03:30 123 0 gusting 1 20.2
2020-May-28 03:25 069 0 gusting 2 20.2
2020-May-28 03:20 074 0 gusting 2 20.2
2020-May-28 03:15 098 0 gusting 2 20.2
2020-May-28 03:10 074 0 gusting 2 20.2
2020-May-28 03:05 084 1 gusting 5 20.2
2020-May-28 03:00 071 1 gusting 3 20.3
2020-May-28 02:55 081 2 gusting 4 20.3
2020-May-28 02:50 091 2 gusting 6 20.3
2020-May-28 02:45 080 1 gusting 4 20.4
2020-May-28 02:40 095 1 gusting 4 20.4
2020-May-28 02:35 069 1 gusting 4 20.4
2020-May-28 02:30 087 1 gusting 3 20.3
2020-May-28 02:25 067 1 gusting 3 20.3
2020-May-28 02:20 084 1 gusting 3 20.2
2020-May-28 02:15 077 1 gusting 4 20.2
2020-May-28 02:10 078 0 gusting 1 20.2
2020-May-28 02:05 107 1 gusting 2 20.2
2020-May-28 02:00 077 0 gusting 1 20.3
2020-May-28 01:55 087 0 gusting 1 20.4
2020-May-28 01:50 077 0 gusting 1 20.5
2020-May-28 01:45 105 1 gusting 4 20.6
2020-May-28 01:40 076 2 gusting 3 20.7
2020-May-28 01:35 087 2 gusting 3 20.8
2020-May-28 01:30 083 2 gusting 4 20.8
2020-May-28 01:25 070 1 gusting 3 20.8
2020-May-28 01:20 091 2 gusting 3 20.8
2020-May-28 01:15 093 1 gusting 4 20.9
2020-May-28 01:10 087 1 gusting 3 21.0
2020-May-28 01:05 088 2 gusting 4 21.1
2020-May-28 01:00 085 2 gusting 5 21.2
2020-May-28 00:55 079 2 gusting 4 21.3
2020-May-28 00:50 084 2 gusting 4 21.4
2020-May-28 00:45 086 2 gusting 5 21.5
2020-May-28 00:40 087 2 gusting 5 21.5
2020-May-28 00:35 096 2 gusting 3 21.6
2020-May-28 00:30 092 3 gusting 5 21.8
2020-May-28 00:25 075 2 gusting 4 22.0
2020-May-28 00:20 079 2 gusting 5 22.1
2020-May-28 00:15 097 2 gusting 6 22.2
2020-May-28 00:10 099 2 gusting 5 22.4
2020-May-28 00:05 092 2 gusting 4 22.5
2020-May-28 00:00 096 2 gusting 5 22.7
2020-May-27 23:55 096 3 gusting 7 22.8
2020-May-27 23:50 094 3 gusting 7 23.0
2020-May-27 23:45 098 3 gusting 7 23.1
2020-May-27 23:40 098 3 gusting 6 23.3
2020-May-27 23:35 098 2 gusting 5 23.5
2020-May-27 23:30 095 3 gusting 6 23.6
2020-May-27 23:25 090 3 gusting 7 23.8
2020-May-27 23:20 091 3 gusting 6 24.0
2020-May-27 23:15 094 3 gusting 7 24.1
2020-May-27 23:10 092 3 gusting 6 24.1
2020-May-27 23:05 093 4 gusting 6 24.2
2020-May-27 23:00 105 3 gusting 8 24.3
2020-May-27 22:55 092 3 gusting 7 24.3
2020-May-27 22:50 089 4 gusting 8 24.3
2020-May-27 22:45 086 4 gusting 6 24.0
2020-May-27 22:40 094 3 gusting 8 23.9
2020-May-27 22:35 098 4 gusting 7 24.0
2020-May-27 22:30 092 4 gusting 8 24.4
2020-May-27 22:25 086 4 gusting 9 24.5
2020-May-27 22:20 094 3 gusting 7 24.6
2020-May-27 22:15 102 4 gusting 8 24.7
2020-May-27 22:10 104 4 gusting 7 24.8
2020-May-27 22:05 090 5 gusting 9 25.0
2020-May-27 22:00 098 3 gusting 6 24.9
2020-May-27 21:55 099 3 gusting 7 24.6
2020-May-27 21:50 097 3 gusting 8 24.8
2020-May-27 21:45 101 3 gusting 8 25.1
2020-May-27 21:40 100 4 gusting 9 24.9
2020-May-27 21:35 096 4 gusting 8 24.8
2020-May-27 21:30 115 3 gusting 9 25.3
2020-May-27 21:25 102 4 gusting 8 25.0
2020-May-27 21:20 092 3 gusting 8 24.8
2020-May-27 21:15 094 3 gusting 7 24.6
2020-May-27 21:10 081 3 gusting 7 24.9
2020-May-27 21:05 115 3 gusting 6 25.4
2020-May-27 21:00 101 4 gusting 7 25.2
2020-May-27 20:55 101 5 gusting 11 25.3
2020-May-27 20:50 101 3 gusting 6 25.1
2020-May-27 20:45 101 3 gusting 5 24.8
2020-May-27 20:40 095 4 gusting 8 24.9
2020-May-27 20:35 094 4 gusting 9 25.1
2020-May-27 20:30 083 3 gusting 10 25.2
2020-May-27 20:25 092 4 gusting 7 25.1
2020-May-27 20:20 082 4 gusting 8 24.8
2020-May-27 20:15 090 4 gusting 8 24.3
2020-May-27 20:10 098 4 gusting 9 23.8
2020-May-27 20:05 096 3 gusting 6 23.7
2020-May-27 20:00 085 4 gusting 8 23.8
2020-May-27 19:55 107 4 gusting 8 24.3
2020-May-27 19:50 090 4 gusting 8 24.9
2020-May-27 19:45 101 3 gusting 7 24.9
2020-May-27 19:40 081 3 gusting 11 24.9
2020-May-27 19:35 091 4 gusting 7 24.8
2020-May-27 19:30 074 4 gusting 7 24.9
2020-May-27 19:25 083 4 gusting 8 25.0
2020-May-27 19:20 093 3 gusting 6 24.8
2020-May-27 19:15 094 4 gusting 7 24.2
2020-May-27 19:10 094 4 gusting 8 24.5
2020-May-27 19:05 093 3 gusting 8 24.8
2020-May-27 19:00 087 2 gusting 6 24.4
2020-May-27 18:55 087 3 gusting 7 23.9
2020-May-27 18:50 101 3 gusting 6 23.6
2020-May-27 18:45 080 3 gusting 6 23.7
2020-May-27 18:40 085 3 gusting 6 23.9
2020-May-27 18:35 070 2 gusting 6 23.8
2020-May-27 18:30 091 2 gusting 4 23.8
2020-May-27 18:25 119 4 gusting 8 23.8
2020-May-27 18:20 104 4 gusting 7 24.0
2020-May-27 18:15 078 3 gusting 8 24.3
2020-May-27 18:10 111 3 gusting 6 24.7
2020-May-27 18:05 093 3 gusting 6 24.8
2020-May-27 18:00 099 3 gusting 6 25.0
2020-May-27 17:55 088 3 gusting 7 24.6
2020-May-27 17:50 083 3 gusting 5 24.6
2020-May-27 17:45 075 3 gusting 7 24.6
2020-May-27 17:40 098 4 gusting 7 24.6
2020-May-27 17:35 105 3 gusting 6 24.4
2020-May-27 17:30 104 3 gusting 6 24.4
2020-May-27 17:25 109 3 gusting 8 24.8
2020-May-27 17:20 088 3 gusting 6 24.8
2020-May-27 17:15 094 3 gusting 6 24.6
2020-May-27 17:10 090 3 gusting 7 24.8
2020-May-27 17:05 084 2 gusting 6 24.5
2020-May-27 17:00 131 3 gusting 6 24.4
2020-May-27 16:55 088 3 gusting 7 24.5
2020-May-27 16:50 079 3 gusting 6 24.2
2020-May-27 16:45 086 3 gusting 6 24.5
2020-May-27 16:40 091 2 gusting 7 24.6
2020-May-27 16:35 123 2 gusting 7 24.8
2020-May-27 16:30 096 3 gusting 7 24.1
2020-May-27 16:25 111 4 gusting 8 24.3
2020-May-27 16:20 078 3 gusting 6 24.0
2020-May-27 16:15 085 2 gusting 5 24.1
2020-May-27 16:10 090 2 gusting 4 23.5
2020-May-27 16:05 084 4 gusting 6 23.4
2020-May-27 16:00 076 3 gusting 6 23.0
2020-May-27 15:55 086 3 gusting 6 23.1
2020-May-27 15:50 134 3 gusting 7 23.3
2020-May-27 15:45 093 2 gusting 5 23.3
2020-May-27 15:40 090 3 gusting 8 23.5
2020-May-27 15:35 092 3 gusting 5 23.5
2020-May-27 15:30 091 3 gusting 6 23.5
2020-May-27 15:25 088 3 gusting 5 23.2
2020-May-27 15:20 072 2 gusting 5 23.2
2020-May-27 15:15 096 3 gusting 5 22.8
2020-May-27 15:10 106 3 gusting 6 22.8
2020-May-27 15:05 095 2 gusting 5 22.4
2020-May-27 15:00 078 3 gusting 6 22.5
2020-May-27 14:55 083 3 gusting 8 22.1
2020-May-27 14:50 105 3 gusting 5 21.7
2020-May-27 14:45 073 3 gusting 6 21.6
2020-May-27 14:40 101 3 gusting 5 21.3
2020-May-27 14:35 091 3 gusting 5 21.2
2020-May-27 14:30 085 2 gusting 4 21.1
2020-May-27 14:25 083 2 gusting 4 20.8
2020-May-27 14:20 076 2 gusting 5 20.7
2020-May-27 14:15 087 2 gusting 6 20.2
2020-May-27 14:10 081 2 gusting 5 19.9
2020-May-27 14:05 075 3 gusting 6 20.0
2020-May-27 14:00 079 2 gusting 6 19.9
2020-May-27 13:55 090 2 gusting 5 19.7
2020-May-27 13:50 088 3 gusting 6 19.5
2020-May-27 13:45 082 2 gusting 6 19.4
2020-May-27 13:40 094 1 gusting 5 19.3
2020-May-27 13:35 092 2 gusting 4 18.8
2020-May-27 13:30 098 2 gusting 4 18.6
2020-May-27 13:25 122 2 gusting 4 18.5
2020-May-27 13:20 095 2 gusting 4 17.8
2020-May-27 13:15 095 1 gusting 3 17.3
2020-May-27 13:10 099 2 gusting 4 17.1
2020-May-27 13:05 099 2 gusting 5 16.6
2020-May-27 13:00 092 3 gusting 5 16.6
2020-May-27 12:55 102 2 gusting 5 16.5
2020-May-27 12:50 095 2 gusting 4 16.3
2020-May-27 12:45 087 1 gusting 3 16.3
2020-May-27 12:40 078 1 gusting 4 16.0
2020-May-27 12:35 077 2 gusting 5 15.9
2020-May-27 12:30 103 2 gusting 4 15.9
2020-May-27 12:25 077 2 gusting 4 15.6
2020-May-27 12:20 080 2 gusting 4 15.5
2020-May-27 12:15 090 2 gusting 3 15.2
2020-May-27 12:10 076 1 gusting 3 15.0
2020-May-27 12:05 091 2 gusting 3 14.9
2020-May-27 12:00 086 2 gusting 4 14.8
2020-May-27 11:55 082 1 gusting 3 14.8
2020-May-27 11:50 078 1 gusting 2 14.7
2020-May-27 11:45 073 1 gusting 4 14.7
2020-May-27 11:40 098 2 gusting 3 14.7
2020-May-27 11:35 073 1 gusting 3 14.8
2020-May-27 11:30 086 1 gusting 3 14.9
2020-May-27 11:25 105 2 gusting 4 14.8
2020-May-27 11:20 088 1 gusting 3 14.6
2020-May-27 11:15 084 1 gusting 3 14.6
2020-May-27 11:10 073 1 gusting 4 14.6
2020-May-27 11:05 091 1 gusting 4 14.8
2020-May-27 11:00 091 1 gusting 2 14.5
2020-May-27 10:55 093 1 gusting 4 14.6
2020-May-27 10:50 094 0 gusting 0 14.5
2020-May-27 10:45 047 0 gusting 1 14.4
2020-May-27 10:40 026 0 gusting 1 14.4
2020-May-27 10:35 078 0 gusting 2 14.4
2020-May-27 10:30 075 0 gusting 2 14.4
2020-May-27 10:25 092 1 gusting 1 14.4
2020-May-27 10:20 072 0 gusting 1 14.3
2020-May-27 10:15 028 0 gusting 1 14.4
2020-May-27 10:10 070 0 gusting 1 14.4
2020-May-27 10:05 084 0 gusting 1 14.4
2020-May-27 10:00 072 0 gusting 2 14.4
2020-May-27 09:55 066 0 gusting 1 14.3
2020-May-27 09:50 079 1 gusting 2 14.3
2020-May-27 09:45 095 0 gusting 1 14.3
2020-May-27 09:40 106 0 gusting 1 14.3
2020-May-27 09:35 051 0 gusting 0 14.3
2020-May-27 09:30 099 0 gusting 1 14.2
2020-May-27 09:25 085 0 gusting 2 14.3
2020-May-27 09:20 071 0 gusting 2 14.3
2020-May-27 09:15 056 0 gusting 1 14.3
2020-May-27 09:10 077 0 gusting 2 14.4
2020-May-27 09:05 078 0 gusting 2 14.4
2020-May-27 09:00 068 0 gusting 1 14.4
2020-May-27 08:55 088 1 gusting 2 14.4
2020-May-27 08:50 081 0 gusting 2 14.4
2020-May-27 08:45 072 1 gusting 2 14.4
2020-May-27 08:40 079 0 gusting 2 14.4
2020-May-27 08:35 061 1 gusting 2 14.3
2020-May-27 08:30 090 1 gusting 2 14.4
2020-May-27 08:25 097 1 gusting 1 14.4
2020-May-27 08:20 065 0 gusting 2 14.6
2020-May-27 08:15 080 0 gusting 0 14.6
2020-May-27 08:10 074 0 gusting 1 14.6
2020-May-27 08:05 110 0 gusting 0 14.5
2020-May-27 08:00 143 0 gusting 1 14.6
2020-May-27 07:55 083 0 gusting 1 14.5
2020-May-27 07:50 103 1 gusting 2 14.6
2020-May-27 07:45 066 0 gusting 1 14.5
2020-May-27 07:40 065 0 gusting 0 14.5
2020-May-27 07:35 086 0 gusting 1 14.4
2020-May-27 07:30 080 0 gusting 2 14.3
2020-May-27 07:25 071 1 gusting 2 14.3
2020-May-27 07:20 081 0 gusting 1 14.3
2020-May-27 07:15 053 0 gusting 0 14.3
2020-May-27 07:10 078 0 gusting 1 14.3
2020-May-27 07:05 082 0 gusting 1 14.2
2020-May-27 07:00 077 0 gusting 1 14.3
2020-May-27 06:55 051 0 gusting 1 14.4
2020-May-27 06:50 086 0 gusting 1 14.3
2020-May-27 06:45 084 0 gusting 1 14.3
2020-May-27 06:40 085 0 gusting 1 14.3
2020-May-27 06:35 051 0 gusting 1 14.4
2020-May-27 06:30 127 0 gusting 1 14.4
2020-May-27 06:25 180 0 gusting 1 14.4
2020-May-27 06:20 126 1 gusting 2 14.5
2020-May-27 06:15 129 1 gusting 2 14.5
2020-May-27 06:10 077 0 gusting 2 14.6
2020-May-27 06:05 105 0 gusting 1 14.6
2020-May-27 06:00 087 1 gusting 2 14.5